| time (UTC) | temp C | wind direction | speed KPH | gust KPH | rain 1hr cm | rain 24hr cm | rain mn cm | humidity % | barometer mb |
| 20260506114522 | 7 | 68 | 6.4 | 12.9 | 0.00 | 0.25 | 0.00 | 77 | 1013.6 |
| 20260506113518 | 8 | 64 | 6.4 | 9.7 | 0.00 | 0.25 | 0.00 | 77 | 1013.5 |
| 20260506112522 | 8 | 73 | 8.0 | 14.5 | 0.00 | 0.25 | 0.00 | 76 | 1013.3 |
| 20260506111518 | 8 | 76 | 6.4 | 11.3 | 0.00 | 0.25 | 0.00 | 75 | 1013.0 |
| 20260506110518 | 9 | 83 | 6.4 | 12.9 | 0.00 | 0.25 | 0.00 | 74 | 1012.7 |
| 20260506105519 | 10 | 96 | 6.4 | 12.9 | 0.00 | 0.25 | 0.00 | 73 | 1012.5 |
| 20260506104521 | 10 | 92 | 8.0 | 14.5 | 0.00 | 0.25 | 0.00 | 73 | 1012.5 |
| 20260506103520 | 10 | 96 | 8.0 | 12.9 | 0.00 | 0.25 | 0.00 | 73 | 1012.4 |
| 20260506102519 | 11 | 105 | 8.0 | 11.3 | 0.00 | 0.25 | 0.00 | 72 | 1012.5 |
| 20260506101520 | 11 | 109 | 8.0 | 11.3 | 0.00 | 0.25 | 0.00 | 71 | 1012.1 |
| 20260506100520 | 11 | 107 | 6.4 | 11.3 | 0.00 | 0.25 | 0.00 | 71 | 1012.1 |
| 20260506095521 | 11 | 115 | 6.4 | 9.7 | 0.00 | 0.25 | 0.00 | 70 | 1011.9 |
| 20260506094521 | 11 | 114 | 6.4 | 8.0 | 0.00 | 0.25 | 0.00 | 69 | 1011.6 |
| 20260506093520 | 11 | 117 | 4.8 | 9.7 | 0.00 | 0.25 | 0.00 | 69 | 1011.5 |
| 20260506092520 | 12 | 113 | 4.8 | 8.0 | 0.00 | 0.25 | 0.00 | 68 | 1011.2 |
| 20260506091540 | 12 | 113 | 4.8 | 9.7 | 0.00 | 0.25 | 0.00 | 68 | 1011.1 |
| 20260506090523 | 12 | 109 | 4.8 | 9.7 | 0.00 | 0.25 | 0.00 | 68 | 1010.9 |
| 20260506085521 | 12 | 106 | 6.4 | 11.3 | 0.00 | 0.25 | 0.00 | 67 | 1010.9 |
| 20260506084524 | 12 | 109 | 4.8 | 6.4 | 0.00 | 0.25 | 0.00 | 67 | 1010.7 |
| 20260506083522 | 12 | 113 | 6.4 | 8.0 | 0.00 | 0.25 | 0.00 | 67 | 1010.6 |
| 20260506082523 | 12 | 108 | 6.4 | 9.7 | 0.00 | 0.25 | 0.00 | 67 | 1010.5 |
| 20260506081522 | 12 | 111 | 4.8 | 8.0 | 0.00 | 0.25 | 0.00 | 67 | 1010.5 |
| 20260506080519 | 12 | 100 | 4.8 | 9.7 | 0.00 | 0.25 | 0.00 | 66 | 1010.5 |
| 20260506073521 | 13 | 106 | 6.4 | 9.7 | 0.00 | 0.25 | 0.00 | 62 | 1010.4 |
| 20260506072520 | 14 | 116 | 6.4 | 11.3 | 0.00 | 0.25 | 0.00 | 61 | 1010.5 |
| 20260506071519 | 15 | 108 | 8.0 | 14.5 | 0.00 | 0.25 | 0.00 | 59 | 1010.6 |
| 20260506070522 | 15 | 110 | 8.0 | 11.3 | 0.00 | 0.25 | 0.00 | 57 | 1010.7 |
| 20260506061520 | 17 | 113 | 8.0 | 11.3 | 0.00 | 0.25 | 0.00 | 51 | 1010.4 |
| 20260506060540 | 17 | 116 | 6.4 | 9.7 | 0.00 | 0.25 | 0.00 | 49 | 1010.1 |
| 20260506050557 | 19 | 246 | 3.2 | 4.8 | 0.00 | 0.25 | 0.00 | 41 | 1009.2 |
| 20260506044518 | 19 | 332 | 6.4 | 9.7 | 0.00 | 0.25 | 0.25 | 42 | 1008.8 |
| 20260506043529 | 20 | 334 | 4.8 | 9.7 | 0.00 | 0.25 | 0.25 | 39 | 1008.9 |
| 20260506042519 | 20 | 304 | 3.2 | 4.8 | 0.00 | 0.25 | 0.25 | 39 | 1009.1 |
| 20260506041521 | 20 | 251 | 1.6 | 3.2 | 0.00 | 0.25 | 0.25 | 39 | 1009.2 |
| 20260506040539 | 20 | 281 | 3.2 | 4.8 | 0.00 | 0.25 | 0.25 | 38 | 1009.1 |
| 20260506035520 | 21 | 306 | 6.4 | 9.7 | 0.00 | 0.25 | 0.25 | 37 | 1009.0 |
| 20260506034540 | 21 | 308 | 9.7 | 14.5 | 0.00 | 0.25 | 0.25 | 37 | 1008.9 |
| 20260506033519 | 21 | 309 | 11.3 | 16.1 | 0.00 | 0.25 | 0.25 | 36 | 1008.8 |
| 20260506032520 | 21 | 307 | 12.9 | 16.1 | 0.00 | 0.25 | 0.25 | 35 | 1008.8 |
| 20260506031621 | 21 | 302 | 11.3 | 16.1 | 0.00 | 0.25 | 0.25 | 34 | 1009.0 |
| 20260506030543 | 21 | 293 | 11.3 | 17.7 | 0.00 | 0.25 | 0.25 | 35 | 1009.0 |
| 20260506025521 | 21 | 300 | 6.4 | 11.3 | 0.00 | 0.25 | 0.25 | 36 | 1008.9 |
| 20260506024522 | 21 | 262 | 4.8 | 9.7 | 0.00 | 0.25 | 0.25 | 36 | 1008.9 |
| 20260506023522 | 21 | 253 | 4.8 | 9.7 | 0.00 | 0.25 | 0.25 | 35 | 1008.8 |
| 20260506022522 | 22 | 256 | 8.0 | 16.1 | 0.00 | 0.25 | 0.25 | 33 | 1008.8 |
| 20260506021521 | 22 | 240 | 17.7 | 24.1 | 0.00 | 0.25 | 0.25 | 32 | 1008.8 |
| 20260506020521 | 22 | 235 | 19.3 | 25.7 | 0.00 | 0.25 | 0.25 | 31 | 1008.6 |
| 20260506015525 | 23 | 230 | 19.3 | 27.4 | 0.00 | 0.25 | 0.25 | 30 | 1008.4 |
| 20260506014521 | 23 | 238 | 19.3 | 30.6 | 0.00 | 0.25 | 0.25 | 30 | 1008.2 |
| 20260506013522 | 23 | 256 | 9.7 | 17.7 | 0.00 | 0.25 | 0.25 | 29 | 1008.1 |
| 20260506012521 | 23 | 248 | 16.1 | 27.4 | 0.00 | 0.25 | 0.25 | 28 | 1008.0 |
| 20260506011519 | 23 | 252 | 11.3 | 25.7 | 0.00 | 0.25 | 0.25 | 28 | 1007.9 |
| 20260506010602 | 24 | 253 | 9.7 | 19.3 | 0.00 | 0.25 | 0.25 | 27 | 1007.7 |
| 20260506005540 | 25 | 245 | 11.3 | 19.3 | 0.00 | 0.25 | 0.25 | 26 | 1007.7 |
| 20260506004524 | 25 | 244 | 9.7 | 19.3 | 0.00 | 0.25 | 0.25 | 26 | 1007.6 |
| 20260506003522 | 25 | 251 | 8.0 | 14.5 | 0.00 | 0.25 | 0.25 | 26 | 1007.7 |
| 20260506002520 | 25 | 252 | 11.3 | 22.5 | 0.00 | 0.25 | 0.25 | 25 | 1007.7 |
| 20260506001539 | 25 | 254 | 12.9 | 22.5 | 0.00 | 0.25 | 0.25 | 25 | 1007.8 |
| 20260506000601 | 26 | 262 | 14.5 | 22.5 | 0.03 | 0.25 | 0.25 | 25 | 1007.7 |
| 20260505235540 | 26 | 262 | 14.5 | 22.5 | 0.15 | 0.25 | 0.25 | 25 | 1007.7 |
| 20260505234520 | 26 | 259 | 16.1 | 30.6 | 0.20 | 0.25 | 0.25 | 25 | 1007.6 |
| 20260505233521 | 26 | 268 | 16.1 | 25.7 | 0.20 | 0.25 | 0.25 | 24 | 1007.6 |
| 20260505232520 | 26 | 256 | 14.5 | 22.5 | 0.23 | 0.25 | 0.25 | 24 | 1007.5 |
| 20260505231521 | 26 | 266 | 17.7 | 32.2 | 0.23 | 0.23 | 0.23 | 24 | 1007.5 |
| 20260505230527 | 26 | 275 | 22.5 | 33.8 | 0.20 | 0.23 | 0.23 | 24 | 1007.4 |
| 20260505225601 | 26 | 282 | 22.5 | 33.8 | 0.08 | 0.08 | 0.08 | 23 | 1007.6 |
| 20260505224521 | 26 | 280 | 20.9 | 27.4 | 0.05 | 0.05 | 0.05 | 23 | 1007.7 |
| 20260505223521 | 26 | 284 | 17.7 | 29.0 | 0.03 | 0.05 | 0.03 | 22 | 1007.7 |
| 20260505222522 | 26 | 277 | 19.3 | 29.0 | 0.03 | 0.03 | 0.03 | 22 | 1007.8 |
| 20260505221542 | 26 | 277 | 17.7 | 29.0 | 0.00 | 0.03 | 0.03 | 23 | 1007.8 |
| 20260505220519 | 26 | 274 | 17.7 | 30.6 | 0.00 | 0.03 | 0.00 | 23 | 1007.9 |
| 20260505215518 | 26 | 280 | 17.7 | 22.5 | 0.00 | 0.03 | 0.00 | 24 | 1008.1 |
| 20260505214539 | 26 | 267 | 14.5 | 20.9 | 0.00 | 0.05 | 0.00 | 25 | 1008.1 |
| 20260505213519 | 26 | 270 | 17.7 | 27.4 | 0.00 | 0.08 | 0.00 | 24 | 1008.3 |
| 20260505212521 | 26 | 271 | 14.5 | 20.9 | 0.00 | 0.08 | 0.00 | 24 | 1008.2 |
| 20260505211541 | 26 | 274 | 19.3 | 25.7 | 0.00 | 0.10 | 0.00 | 24 | 1008.1 |
| 20260505210520 | 27 | 269 | 17.7 | 29.0 | 0.00 | 0.13 | 0.00 | 23 | 1008.0 |
| 20260505205521 | 26 | 264 | 14.5 | 20.9 | 0.00 | 0.15 | 0.00 | 22 | 1008.3 |
| 20260505204520 | 26 | 275 | 12.9 | 20.9 | 0.00 | 0.15 | 0.00 | 22 | 1008.3 |
| 20260505203521 | 27 | 259 | 12.9 | 22.5 | 0.00 | 0.15 | 0.00 | 22 | 1008.5 |
| 20260505202525 | 27 | 262 | 12.9 | 20.9 | 0.00 | 0.15 | 0.00 | 23 | 1008.7 |
| 20260505201521 | 27 | 256 | 14.5 | 27.4 | 0.00 | 0.15 | 0.00 | 23 | 1008.7 |
| 20260505200540 | 26 | 253 | 12.9 | 19.3 | 0.00 | 0.15 | 0.00 | 23 | 1008.7 |
| 20260505195522 | 26 | 249 | 9.7 | 17.7 | 0.00 | 0.15 | 0.00 | 24 | 1008.6 |
| 20260505194521 | 26 | 253 | 9.7 | 17.7 | 0.00 | 0.15 | 0.00 | 24 | 1008.8 |
| 20260505193528 | 26 | 274 | 12.9 | 19.3 | 0.00 | 0.15 | 0.00 | 24 | 1008.8 |
| 20260505192541 | 26 | 269 | 9.7 | 19.3 | 0.00 | 0.15 | 0.00 | 24 | 1008.7 |
| 20260505191521 | 26 | 282 | 11.3 | 19.3 | 0.00 | 0.15 | 0.00 | 24 | 1008.8 |
| 20260505190522 | 27 | 270 | 11.3 | 19.3 | 0.00 | 0.15 | 0.00 | 23 | 1008.9 |
| 20260505185518 | 27 | 285 | 9.7 | 14.5 | 0.00 | 0.15 | 0.00 | 23 | 1008.9 |
| 20260505184519 | 27 | 284 | 11.3 | 17.7 | 0.00 | 0.15 | 0.00 | 23 | 1009.1 |
| 20260505183519 | 27 | 276 | 12.9 | 17.7 | 0.00 | 0.15 | 0.00 | 23 | 1009.1 |
| 20260505182520 | 27 | 292 | 9.7 | 14.5 | 0.00 | 0.15 | 0.00 | 23 | 1009.1 |
| 20260505181520 | 27 | 280 | 9.7 | 16.1 | 0.00 | 0.15 | 0.00 | 23 | 1009.2 |
| 20260505180546 | 26 | 299 | 11.3 | 19.3 | 0.00 | 0.15 | 0.00 | 23 | 1009.3 |
| 20260505175519 | 27 | 297 | 11.3 | 17.7 | 0.00 | 0.15 | 0.00 | 22 | 1009.3 |
| 20260505174520 | 26 | 309 | 12.9 | 19.3 | 0.00 | 0.15 | 0.00 | 22 | 1009.2 |
| 20260505173539 | 26 | 297 | 12.9 | 20.9 | 0.00 | 0.15 | 0.00 | 23 | 1009.4 |
| 20260505172525 | 26 | 315 | 11.3 | 19.3 | 0.00 | 0.15 | 0.00 | 22 | 1009.3 |
| 20260505171520 | 26 | 323 | 11.3 | 20.9 | 0.00 | 0.15 | 0.00 | 22 | 1009.2 |
| 20260505170542 | 26 | 309 | 14.5 | 24.1 | 0.00 | 0.15 | 0.00 | 22 | 1009.3 |
| 20260505165521 | 26 | 320 | 14.5 | 20.9 | 0.00 | 0.15 | 0.00 | 22 | 1009.2 |
| 20260505164521 | 25 | 328 | 16.1 | 22.5 | 0.00 | 0.15 | 0.00 | 23 | 1009.2 |
| 20260505163520 | 25 | 325 | 16.1 | 24.1 | 0.00 | 0.15 | 0.00 | 23 | 1009.1 |
| 20260505162523 | 25 | 340 | 12.9 | 20.9 | 0.00 | 0.15 | 0.00 | 23 | 1009.2 |
| 20260505161521 | 25 | 327 | 16.1 | 24.1 | 0.00 | 0.15 | 0.00 | 23 | 1009.2 |
| 20260505160523 | 25 | 325 | 14.5 | 24.1 | 0.00 | 0.15 | 0.00 | 23 | 1009.1 |
| 20260505152519 | 23 | 320 | 12.9 | 19.3 | 0.00 | 0.15 | 0.00 | 26 | 1008.8 |
| 20260505151519 | 23 | 316 | 12.9 | 25.7 | 0.00 | 0.15 | 0.00 | 26 | 1008.9 |
| 20260505150520 | 23 | 322 | 11.3 | 17.7 | 0.00 | 0.15 | 0.00 | 28 | 1008.8 |
| 20260505140520 | 20 | 307 | 16.1 | 22.5 | 0.00 | 0.15 | 0.00 | 38 | 1008.5 |
| 20260505124523 | 18 | 246 | 14.5 | 19.3 | 0.00 | 0.15 | 0.00 | 45 | 1007.8 |
| 20260505123522 | 18 | 275 | 9.7 | 17.7 | 0.00 | 0.15 | 0.00 | 44 | 1007.2 |
| 20260505122519 | 17 | 259 | 9.7 | 16.1 | 0.00 | 0.15 | 0.00 | 45 | 1007.4 |
| 20260505121519 | 17 | 257 | 8.0 | 14.5 | 0.00 | 0.15 | 0.00 | 47 | 1007.4 |
| 20260505120519 | 17 | 244 | 8.0 | 11.3 | 0.00 | 0.15 | 0.00 | 50 | 1007.5 |
| 20260505115519 | 17 | 236 | 6.4 | 9.7 | 0.00 | 0.15 | 0.00 | 51 | 1007.3 |